Preview of NWS' New Version of Forecast
This preview is not operational and should not be used for support decisions.

Regional Weather Roundup (RWR)

Issued by National Weather Service (NWS)

                            
000
ASUS45 KCYS 201910
RWRWY 

WYOMING REGIONAL WEATHER ROUNDUP
NATIONAL WEATHER SERVICE CHEYENNE WY
100 PM MDT TUE AUG 20 2019

NOTE:  "FAIR" INDICATES FEW OR NO CLOUDS BELOW 12,000 FEET
WITH NO SIGNIFICANT WEATHER AND/OR OBSTRUCTIONS TO VISIBILITY.

WYZ001-202000-
YELLOWSTONE NATIONAL PARK
  
CITY           SKY/WX    TMP DP  RH WIND       PRES   REMARKS
LK YELLOWSTONE   N/A     70  32  24 SE6       30.38F                  
W YELLOWSTONE  NOT AVBL                                               

$$
WYZ002>013-054>058-071-098>099-202000-
NORTHERN WYOMING
  
CITY           SKY/WX    TMP DP  RH WIND       PRES   REMARKS
JACKSON        FAIR      77  38  24 S5        30.26F                  
CODY           FAIR      78  49  35 NE10      30.19F                  
GREYBULL       FAIR      86  44  23 CALM      30.08F                  
WORLAND        FAIR      85  48  27 VRB6      30.11F                  
SHERIDAN       FAIR      87  48  25 SE12      30.12S                  
BUFFALO        FAIR      82  50  32 SE8G22    30.19F                  
GILLETTE       FAIR      86  51  29 E8        30.14F                  
HULETT         FAIR      79  50  36 E9G24     30.20R                  
NEWCASTLE      FAIR      90  37  15 SE7G18    30.14S                  

$$
WYZ014>020-022>026-101>103-202000-
CENTRAL WYOMING
  
CITY           SKY/WX    TMP DP  RH WIND       PRES   REMARKS
BIG PINEY      FAIR      83  21  10 SW8       30.31F                  
PINEDALE       FAIR      79  21  11 SE9       30.32F                  
DUBOIS         FAIR      79  27  14 E7        30.29F                  
LANDER         FAIR      84  37  18 VRB5      30.19F                  
RIVERTON       FAIR      83  42  23 E8        30.19F                  
CASPER         FAIR      87  47  24 N10       30.18F                  
DOUGLAS        FAIR      90  41  18 NE9       30.16F                  

$$
WYZ021-027>030-104>119-202000-
SOUTHERN WYOMING
  
CITY           SKY/WX    TMP DP  RH WIND       PRES   REMARKS
EVANSTON       FAIR      83  19   9 SW10G18   30.29F                  
KEMMERER       FAIR      81  14   8 S10       30.32F                  
ROCK SPRINGS   FAIR      82  24  12 VRB5      30.28F                  
DIXON          FAIR      87  22   9 S20G25    30.29F                  
RAWLINS        FAIR      89  24   9 SW17G23   30.28F                  
SARATOGA       FAIR      86  25  10 SE9       30.31F                  
LARAMIE        FAIR      86  21   9 SW12G22   30.31F                  
CHEYENNE       FAIR      87  42  20 NE17G24   30.22S                  
TORRINGTON     FAIR      89  67  47 E16G25    30.09F HX  92           
PINE BLUFFS    FAIR      88  50  27 NE12G21   30.17S                  

$$